Flag for Australia Weather past 2 weeks in Alice Springs, Northern Territory, Australia

Now
99 °F

Duststorm.


Feels Like: 93 °F
Forecast: 73 / 92 °F
Wind: 15 mph from North

Location: Alice Springs Aerodrome

Current Time: Oct 26, 2014 at 1:16:57 PM

Latest Report: Oct 26, 2014 at 12:30 PM


Visibility: N/A

Pressure: 29.98 "Hg

Humidity: 10%

Dew point: 32 °F

Location of Alice SpringsLocation

Historic Weather in Alice Springs — Graph

°F

Alice Springs temperature yesterday

Maximum temperature yesterday: 100 °F (at 3:00 PM)
Minimum temperature yesterday: 68 °F (at 3:30 AM)
Average temperature yesterday: 86 °F

Past Weeks' High & Low Weather Summary

 TemperatureHumidityPressure
High100 °F (Oct 25, 3:00 PM)44% (Oct 12, 5:30 AM)30.30 "Hg (Oct 12, 5:30 AM)
Low43 °F (Oct 16, 4:30 AM)0% (Oct 18, 2:00 PM)29.80 "Hg (Oct 12, 4:00 PM)
Average76 °F14%30.07 "Hg
* Reported Oct 11 11:30 AM — Oct 26 11:30 AM, Alice Springs, Weather by CustomWeather, © 2014

Note: Actual official high and low records may vary slightly from our data, if they occured in-between our weather recording intervals... More about our weather records

Advertising

Alice Springs weather history for previous 24 hours

 ConditionsComfort  
Time TempWeatherWind HumidityBarometerVisibility
11:30 AM
Oct 26
99 °FDuststorm.12 mph9%30.04 "HgN/A
11:00 AM97 °FSunny.14 mph10%30.04 "Hg10 mi
10:30 AM97 °FSunny.17 mph11%30.07 "Hg10 mi
10:00 AM97 °FSunny.18 mph10%30.07 "Hg10 mi
9:30 AM95 °FSunny.15 mph10%30.07 "Hg10 mi
9:00 AM91 °FSunny.16 mph11%30.07 "Hg10 mi
8:30 AM91 °FSunny.14 mph11%30.07 "Hg10 mi
8:00 AM88 °FSunny.10 mph12%30.07 "Hg10 mi
7:30 AM84 °FSunny.9 mph11%30.07 "Hg10 mi
6:30 AM81 °FSunny.10 mph12%30.04 "Hg10 mi
6:00 AM79 °FSunny.9 mph16%30.04 "Hg10 mi
5:30 AM81 °FSunny.10 mph16%30.01 "HgN/A
5:00 AM81 °FClear.8 mph16%30.01 "HgN/A
4:30 AM82 °FClear.10 mph14%30.01 "HgN/A
4:00 AM84 °FClear.10 mph12%30.01 "HgN/A
3:30 AM82 °FClear.9 mph15%30.01 "HgN/A
3:00 AM81 °FClear.7 mph17%29.98 "HgN/A
2:30 AM84 °FClear.3 mph13%30.01 "HgN/A
2:00 AM84 °FClear.9 mph14%30.01 "HgN/A
1:30 AM86 °FClear.8 mph13%30.01 "HgN/A
1:00 AM81 °FClear.6 mph18%30.01 "HgN/A
12:30 AM81 °FClear.6 mph23%30.01 "HgN/A
11:30 PM
Oct 25
82 °FClear.7 mph16%30.04 "HgN/A
11:00 PM82 °FClear.7 mph16%30.04 "HgN/A
10:30 PM82 °FClear.8 mph17%30.04 "HgN/A
10:00 PM82 °FClear.7 mph19%30.04 "HgN/A
9:30 PM82 °FClear.7 mph19%30.04 "HgN/A
9:00 PM84 °FClear.7 mph15%30.04 "HgN/A
8:30 PM84 °FClear.8 mph18%30.04 "HgN/A
8:00 PM86 °FClear.8 mph17%30.01 "HgN/A
7:30 PM88 °FClear.7 mph17%30.01 "HgN/A
7:00 PM91 °FClear.8 mph14%30.01 "HgN/A
6:30 PM95 °FClear.10 mph11%29.98 "HgN/A
6:00 PM97 °FSunny.10 mph9%29.98 "HgN/A
5:30 PM97 °FPassing clouds.8 mph11%29.98 "HgN/A
5:00 PM99 °FSunny.12 mph8%29.98 "Hg10 mi
4:30 PM99 °FDuststorm.3 mph12%29.98 "HgN/A
4:00 PM99 °FDuststorm.9 mph10%29.98 "HgN/A
3:00 PM100 °FDuststorm.16 mph8%29.98 "HgN/A
2:30 PM99 °FPassing clouds.13 mph8%30.01 "HgN/A
2:00 PM99 °FDuststorm.15 mph8%30.01 "HgN/A
1:30 PM99 °FDuststorm.7 mph9%30.01 "HgN/A
1:00 PM97 °FDuststorm.17 mph8%30.04 "HgN/A
Weather by CustomWeather, © 2014

See weather overviewHow to use our weather pages